68114 UUMU-UUMU

Flight info

Callsign 68114
Flight time 0h 26m
Altitude 19700
Route /RA/M0060
Aircraft T204/M-SDFGHIRWY/B1B2

Departure

Time 2026-04-28 17:26
Airport Chkalovskiy Air Base (UUMU)

Arrival

Time 2026-04-28 17:52
Airport Chkalovskiy Air Base (UUMU)
Time Latitude Longitude Altitude Speed Heading
2026-04-28 16:55 55.87790 38.03798 475 ft 0 kts 100°
2026-04-28 17:15 55.87790 38.03799 477 ft 1 kts 100°
2026-04-28 17:16 55.87793 38.03850 477 ft 6 kts 55°
2026-04-28 17:16 55.87840 38.03889 477 ft 10 kts 15°
2026-04-28 17:16 55.87880 38.03904 477 ft 12 kts
2026-04-28 17:16 55.87970 38.03933 477 ft 14 kts
2026-04-28 17:17 55.88060 38.04009 477 ft 15 kts 59°
2026-04-28 17:17 55.88087 38.04188 477 ft 16 kts 59°
2026-04-28 17:17 55.88173 38.04334 477 ft 18 kts 39°
2026-04-28 17:17 55.88268 38.04479 477 ft 19 kts 40°
2026-04-28 17:18 55.88365 38.04623 477 ft 17 kts 45°
2026-04-28 17:18 55.88368 38.04814 477 ft 18 kts 124°
2026-04-28 17:18 55.88288 38.04988 477 ft 19 kts 131°
2026-04-28 17:18 55.88198 38.05169 477 ft 20 kts 129°
2026-04-28 17:19 55.88104 38.05366 477 ft 22 kts 129°
2026-04-28 17:19 55.88005 38.05579 477 ft 23 kts 130°
2026-04-28 17:19 55.87900 38.05800 477 ft 24 kts 131°
2026-04-28 17:19 55.87789 38.06031 477 ft 25 kts 130°
2026-04-28 17:20 55.87673 38.06275 477 ft 26 kts 131°
2026-04-28 17:20 55.87592 38.06442 477 ft 27 kts 131°
2026-04-28 17:20 55.87425 38.06793 477 ft 28 kts 130°
2026-04-28 17:20 55.87309 38.07036 477 ft 25 kts 129°
2026-04-28 17:21 55.87238 38.07253 477 ft 17 kts 78°
2026-04-28 17:21 55.87322 38.07346 477 ft 13 kts
2026-04-28 17:21 55.87350 38.07351 477 ft 0 kts
2026-04-28 17:23 55.87358 38.07352 477 ft 5 kts
2026-04-28 17:23 55.87424 38.07360 477 ft 14 kts
2026-04-28 17:23 55.87539 38.07335 477 ft 20 kts 322°
2026-04-28 17:24 55.87592 38.07230 477 ft 0 kts 309°
2026-04-28 17:25 55.87692 38.07021 477 ft 63 kts 308°
2026-04-28 17:25 55.88888 38.04634 811 ft 152 kts 311°
2026-04-28 17:25 55.89628 38.03231 929 ft 158 kts 311°
2026-04-28 17:26 55.90391 38.01796 1148 ft 166 kts 311°
2026-04-28 17:26 55.91248 38.00196 1511 ft 185 kts 311°
2026-04-28 17:26 55.92145 37.98544 1881 ft 187 kts 311°
2026-04-28 17:26 55.93052 37.96900 2266 ft 187 kts 311°
2026-04-28 17:27 55.93963 37.95247 2461 ft 190 kts 311°
2026-04-28 17:27 55.94976 37.93743 2414 ft 194 kts 330°
2026-04-28 17:27 55.96319 37.93353 2446 ft 204 kts 359°
2026-04-28 17:27 55.97691 37.94195 2458 ft 216 kts 21°
2026-04-28 17:28 55.98887 37.95914 2446 ft 225 kts 40°
2026-04-28 17:28 56.00996 38.00031 2436 ft 226 kts 43°
2026-04-28 17:28 56.01567 38.02657 2409 ft 240 kts 91°
2026-04-28 17:29 56.00999 38.05416 2503 ft 241 kts 126°
2026-04-28 17:29 56.00003 38.07826 2467 ft 243 kts 130°
2026-04-28 17:29 55.98963 38.10177 2444 ft 241 kts 131°
2026-04-28 17:30 55.96872 38.14836 2445 ft 240 kts 131°
2026-04-28 17:30 55.94786 38.19479 2437 ft 241 kts 131°
2026-04-28 17:30 55.93744 38.21803 2446 ft 241 kts 131°
2026-04-28 17:31 55.92702 38.24120 2444 ft 241 kts 131°
2026-04-28 17:31 55.90607 38.28768 2445 ft 240 kts 131°
2026-04-28 17:32 55.88522 38.33401 2444 ft 241 kts 131°
2026-04-28 17:32 55.87461 38.35696 2440 ft 241 kts 132°
2026-04-28 17:32 55.86398 38.37980 2447 ft 240 kts 132°
2026-04-28 17:32 55.85336 38.40260 2442 ft 241 kts 132°
2026-04-28 17:33 55.84069 38.42042 2414 ft 230 kts 172°
2026-04-28 17:33 55.82566 38.41923 2498 ft 211 kts 209°
2026-04-28 17:33 55.81299 38.40718 2470 ft 206 kts 219°
2026-04-28 17:33 55.80504 38.39805 2457 ft 206 kts 221°
2026-04-28 17:34 55.78956 38.37883 2446 ft 202 kts 227°
2026-04-28 17:34 55.77921 38.36244 2449 ft 200 kts 230°
2026-04-28 17:34 55.76940 38.34527 2440 ft 196 kts 242°
2026-04-28 17:34 55.76476 38.32366 2464 ft 186 kts 267°
2026-04-28 17:35 55.76759 38.30191 2456 ft 184 kts 302°
2026-04-28 17:35 55.77557 38.28420 2469 ft 186 kts 309°
2026-04-28 17:35 55.78438 38.26740 2440 ft 186 kts 310°
2026-04-28 17:35 55.79333 38.25096 2447 ft 186 kts 311°
2026-04-28 17:36 55.80233 38.23460 2442 ft 186 kts 311°
2026-04-28 17:36 55.81122 38.21813 2445 ft 186 kts 309°
2026-04-28 17:36 55.81988 38.20125 2443 ft 186 kts 309°
2026-04-28 17:36 55.82831 38.18382 2446 ft 185 kts 307°
2026-04-28 17:37 55.83637 38.16610 2445 ft 185 kts 306°
2026-04-28 17:37 55.84439 38.14835 2439 ft 185 kts 306°
2026-04-28 17:37 55.85240 38.13058 2442 ft 185 kts 306°
2026-04-28 17:37 55.86041 38.11273 2442 ft 185 kts 306°
2026-04-28 17:38 55.86842 38.09496 2441 ft 185 kts 306°
2026-04-28 17:38 55.87642 38.07720 2441 ft 185 kts 306°
2026-04-28 17:38 55.88447 38.05929 2440 ft 185 kts 306°
2026-04-28 17:38 55.89249 38.04145 2442 ft 185 kts 306°
2026-04-28 17:39 55.90071 38.02394 2440 ft 186 kts 310°
2026-04-28 17:39 55.90992 38.00790 2435 ft 189 kts 322°
2026-04-28 17:39 55.93603 38.01420 2466 ft 222 kts 34°
2026-04-28 17:40 55.94689 38.03403 2456 ft 225 kts 41°
2026-04-28 17:40 55.95736 38.05505 2440 ft 226 kts 42°
2026-04-28 17:40 55.96758 38.07609 2441 ft 225 kts 42°
2026-04-28 17:40 55.97658 38.09906 2420 ft 235 kts 67°
2026-04-28 17:41 55.97702 38.12809 2455 ft 242 kts 109°
2026-04-28 17:41 55.96846 38.15369 2489 ft 241 kts 129°
2026-04-28 17:41 55.95826 38.17743 2439 ft 243 kts 130°
2026-04-28 17:41 55.94785 38.20074 2439 ft 240 kts 131°
2026-04-28 17:42 55.93735 38.22411 2451 ft 241 kts 131°
2026-04-28 17:42 55.92694 38.24726 2440 ft 241 kts 131°
2026-04-28 17:42 55.91649 38.27047 2445 ft 241 kts 131°
2026-04-28 17:42 55.90605 38.29362 2445 ft 241 kts 131°
2026-04-28 17:43 55.89561 38.31679 2440 ft 241 kts 131°
2026-04-28 17:43 55.88516 38.33994 2445 ft 241 kts 131°
2026-04-28 17:43 55.87468 38.36303 2447 ft 241 kts 132°
2026-04-28 17:43 55.86399 38.38604 2445 ft 241 kts 132°
2026-04-28 17:44 55.85308 38.40834 2436 ft 239 kts 144°
2026-04-28 17:44 55.83856 38.41701 2436 ft 213 kts 195°
2026-04-28 17:44 55.82559 38.40812 2490 ft 198 kts 218°
2026-04-28 17:44 55.81413 38.39561 2538 ft 192 kts 221°
2026-04-28 17:45 55.80300 38.38257 2436 ft 192 kts 222°
2026-04-28 17:45 55.79197 38.36942 2456 ft 188 kts 222°
2026-04-28 17:45 55.78170 38.35751 2466 ft 170 kts 222°
2026-04-28 17:45 55.77260 38.34539 2394 ft 156 kts 242°
2026-04-28 17:46 55.77074 38.32802 2464 ft 143 kts 277°
2026-04-28 17:46 55.77184 38.31051 2466 ft 142 kts 279°
2026-04-28 17:46 55.77442 38.29424 2437 ft 136 kts 295°
2026-04-28 17:46 55.77836 38.27913 2451 ft 135 kts 293°
2026-04-28 17:47 55.78298 38.26461 2436 ft 137 kts 305°
2026-04-28 17:47 55.78894 38.25136 2449 ft 137 kts 306°
2026-04-28 17:47 55.79515 38.23858 2440 ft 138 kts 308°
2026-04-28 17:47 55.79932 38.23012 2446 ft 138 kts 307°
2026-04-28 17:48 55.80764 38.21306 2444 ft 137 kts 307°
2026-04-28 17:48 55.81368 38.20060 2264 ft 128 kts 307°
2026-04-28 17:48 55.81921 38.18933 2071 ft 117 kts 306°
2026-04-28 17:48 55.82441 38.17862 1933 ft 114 kts 306°
2026-04-28 17:49 55.82961 38.16783 1800 ft 115 kts 306°
2026-04-28 17:49 55.83486 38.15695 1657 ft 117 kts 307°
2026-04-28 17:49 55.84021 38.14597 1500 ft 119 kts 307°
2026-04-28 17:49 55.84561 38.13481 1335 ft 121 kts 307°
2026-04-28 17:50 55.85109 38.12352 1170 ft 122 kts 308°
2026-04-28 17:50 55.85663 38.11203 1003 ft 124 kts 308°
2026-04-28 17:50 55.86231 38.10049 815 ft 126 kts 310°
2026-04-28 17:50 55.86814 38.08896 606 ft 123 kts 308°
2026-04-28 17:51 55.87342 38.07764 485 ft 117 kts 308°
2026-04-28 17:51 55.87802 38.06790 477 ft 87 kts 311°
2026-04-28 17:51 55.88167 38.06034 477 ft 74 kts 309°
2026-04-28 17:51 55.88465 38.05416 477 ft 59 kts 309°
2026-04-28 17:52 55.88680 38.04957 477 ft 42 kts 311°
2026-04-28 17:52 55.88858 38.04583 477 ft 36 kts 308°
2026-04-28 17:52 55.88886 38.04230 477 ft 12 kts 187°
2026-04-28 17:53 55.88808 38.04211 477 ft 10 kts 188°
2026-04-28 17:53 55.88743 38.04193 477 ft 9 kts 189°
2026-04-28 17:53 55.88685 38.04198 477 ft 11 kts 161°
2026-04-28 17:53 55.88607 38.04331 477 ft 24 kts 129°
2026-04-28 17:54 55.88477 38.04603 477 ft 33 kts 130°
2026-04-28 17:54 55.88313 38.04940 477 ft 39 kts 131°
2026-04-28 17:54 55.88122 38.05332 477 ft 45 kts 131°
2026-04-28 17:54 55.87907 38.05780 477 ft 51 kts 130°
2026-04-28 17:55 55.87671 38.06273 477 ft 53 kts 131°
2026-04-28 17:55 55.87458 38.06717 477 ft 44 kts 131°
2026-04-28 17:55 55.87274 38.07097 477 ft 33 kts 129°
2026-04-28 17:55 55.87290 38.07338 477 ft 18 kts 14°
2026-04-28 17:56 55.87411 38.07362 477 ft 17 kts
2026-04-28 17:56 55.87528 38.07349 477 ft 17 kts 332°
2026-04-28 17:56 55.87628 38.07140 477 ft 48 kts 308°
2026-04-28 17:56 55.88044 38.06279 483 ft 133 kts 310°
2026-04-28 17:57 55.88711 38.05111 1146 ft 131 kts 315°
2026-04-28 17:57 55.89383 38.03940 1367 ft 151 kts 312°
2026-04-28 17:57 55.90165 38.02518 1776 ft 171 kts 311°
2026-04-28 17:57 55.91232 38.01363 1794 ft 203 kts 350°
2026-04-28 17:58 55.92596 38.02218 2083 ft 227 kts 38°
2026-04-28 17:58 55.93353 38.04756 2486 ft 248 kts 78°
2026-04-28 17:58 55.93243 38.07853 2497 ft 255 kts 100°
2026-04-28 17:58 55.92861 38.10929 2452 ft 255 kts 106°
2026-04-28 17:59 55.92353 38.13906 2429 ft 248 kts 107°
2026-04-28 17:59 55.91850 38.16781 2422 ft 240 kts 107°
2026-04-28 17:59 55.91270 38.19553 2439 ft 238 kts 117°
2026-04-28 17:59 55.90552 38.22195 2442 ft 238 kts 117°
2026-04-28 18:00 55.89824 38.24844 2446 ft 239 kts 117°
2026-04-28 18:00 55.89104 38.27449 2433 ft 233 kts 117°
2026-04-28 18:00 55.88364 38.29972 2430 ft 230 kts 126°
2026-04-28 18:00 55.87410 38.32210 2447 ft 228 kts 130°
2026-04-28 18:01 55.86435 38.34427 2439 ft 229 kts 131°
2026-04-28 18:01 55.85345 38.36442 2423 ft 223 kts 159°
2026-04-28 18:01 55.83927 38.36700 2481 ft 200 kts 207°
2026-04-28 18:01 55.82714 38.35628 2501 ft 196 kts 219°
2026-04-28 18:02 55.81605 38.34400 2606 ft 184 kts 221°
2026-04-28 18:02 55.80525 38.33157 2454 ft 186 kts 222°
2026-04-28 18:02 55.79458 38.31909 2454 ft 184 kts 222°
2026-04-28 18:02 55.78389 38.30658 2445 ft 185 kts 222°
2026-04-28 18:03 55.77547 38.29081 2383 ft 170 kts 257°
2026-04-28 18:03 55.77730 38.27141 2467 ft 164 kts 300°
2026-04-28 18:03 55.78457 38.25561 2486 ft 167 kts 310°
2026-04-28 18:03 55.79272 38.24085 2447 ft 168 kts 312°
2026-04-28 18:04 55.80102 38.22636 2449 ft 168 kts 311°
2026-04-28 18:04 55.80840 38.21172 2419 ft 145 kts 308°
2026-04-28 18:04 55.81449 38.19931 2203 ft 126 kts 307°
2026-04-28 18:04 55.81993 38.18809 2030 ft 116 kts 307°
2026-04-28 18:05 55.82517 38.17721 1916 ft 117 kts 307°
2026-04-28 18:05 55.82871 38.16986 1827 ft 119 kts 307°
2026-04-28 18:05 55.83593 38.15493 1639 ft 121 kts 307°
2026-04-28 18:05 55.84145 38.14352 1471 ft 123 kts 307°
2026-04-28 18:06 55.84703 38.13195 1298 ft 125 kts 308°
2026-04-28 18:06 55.85271 38.12025 1122 ft 125 kts 308°
2026-04-28 18:06 55.85838 38.10858 941 ft 125 kts 309°
2026-04-28 18:06 55.86423 38.09698 771 ft 128 kts 309°
2026-04-28 18:07 55.87003 38.08478 584 ft 132 kts 308°
2026-04-28 18:07 55.87588 38.07249 478 ft 125 kts 309°
2026-04-28 18:07 55.88025 38.06327 477 ft 78 kts 310°
2026-04-28 18:07 55.88352 38.05637 477 ft 69 kts 309°
2026-04-28 18:08 55.88648 38.05025 477 ft 61 kts 310°
2026-04-28 18:08 55.88869 38.04559 477 ft 32 kts 311°
2026-04-28 18:08 55.88938 38.04252 477 ft 22 kts 212°
2026-04-28 18:08 55.88800 38.04209 477 ft 18 kts 187°
2026-04-28 18:09 55.88656 38.04232 477 ft 25 kts 138°
2026-04-28 18:09 55.88536 38.04476 477 ft 22 kts 129°
2026-04-28 18:09 55.88436 38.04700 477 ft 22 kts 127°
2026-04-28 18:09 55.88325 38.04927 477 ft 28 kts 133°
2026-04-28 18:10 55.88200 38.05211 477 ft 29 kts 126°
2026-04-28 18:10 55.88074 38.05458 477 ft 23 kts 130°
2026-04-28 18:10 55.87978 38.05663 477 ft 24 kts 132°
2026-04-28 18:10 55.87852 38.05898 477 ft 27 kts 132°
2026-04-28 18:11 55.87716 38.06168 477 ft 31 kts 130°
2026-04-28 18:11 55.87575 38.06462 477 ft 33 kts 130°
2026-04-28 18:11 55.87434 38.06763 477 ft 25 kts 130°
2026-04-28 18:11 55.87323 38.06995 477 ft 26 kts 128°
2026-04-28 18:12 55.87243 38.07275 477 ft 28 kts 66°
2026-04-28 18:12 55.87382 38.07357 477 ft 17 kts
2026-04-28 18:12 55.87526 38.07346 477 ft 23 kts 331°
2026-04-28 18:12 55.87621 38.07166 477 ft 11 kts 308°
2026-04-28 18:13 55.87630 38.07146 477 ft 0 kts 309°
2026-04-28 18:14 55.87690 38.07017 477 ft 49 kts 308°
2026-04-28 18:14 55.88115 38.06137 484 ft 136 kts 309°
2026-04-28 18:14 55.88768 38.04816 1107 ft 149 kts 310°
2026-04-28 18:15 55.89543 38.03349 1796 ft 178 kts 310°
2026-04-28 18:15 55.90463 38.01663 1682 ft 201 kts 311°
2026-04-28 18:15 55.91429 37.99891 1675 ft 196 kts 311°
2026-04-28 18:15 55.92461 37.98359 1765 ft 202 kts 335°
2026-04-28 18:16 55.93861 37.98558 1776 ft 215 kts 23°
2026-04-28 18:16 55.95016 38.00285 1829 ft 220 kts 39°
2026-04-28 18:16 55.96054 38.02249 2017 ft 217 kts 41°
2026-04-28 18:16 55.97056 38.04260 2405 ft 220 kts 42°
2026-04-28 18:17 55.98079 38.06362 2444 ft 226 kts 42°
2026-04-28 18:17 55.98895 38.08749 2399 ft 237 kts 76°
2026-04-28 18:17 55.98623 38.11603 2465 ft 239 kts 121°
2026-04-28 18:17 55.97677 38.14024 2487 ft 239 kts 129°
2026-04-28 18:18 55.96657 38.16357 2447 ft 239 kts 131°
2026-04-28 18:18 55.95629 38.18651 2439 ft 238 kts 131°
2026-04-28 18:18 55.94601 38.20937 2443 ft 237 kts 131°
2026-04-28 18:18 55.93909 38.22470 2449 ft 237 kts 131°
2026-04-28 18:19 55.92535 38.25530 2447 ft 238 kts 131°
2026-04-28 18:19 55.91507 38.27817 2439 ft 238 kts 131°
2026-04-28 18:19 55.90478 38.30104 2444 ft 238 kts 131°
2026-04-28 18:19 55.89448 38.32391 2444 ft 238 kts 131°
2026-04-28 18:20 55.88429 38.34655 2427 ft 231 kts 131°
2026-04-28 18:20 55.87459 38.36820 2419 ft 219 kts 130°
2026-04-28 18:20 55.86525 38.38910 2564 ft 213 kts 131°
2026-04-28 18:20 55.85590 38.41002 2477 ft 220 kts 131°
2026-04-28 18:21 55.84664 38.43080 2423 ft 210 kts 131°
2026-04-28 18:21 55.83720 38.44960 2393 ft 201 kts 150°
2026-04-28 18:21 55.82472 38.45457 2422 ft 178 kts 200°
2026-04-28 18:21 55.81392 38.44623 2517 ft 168 kts 219°
2026-04-28 18:22 55.80445 38.43453 2451 ft 165 kts 229°
2026-04-28 18:22 55.79586 38.42129 2438 ft 160 kts 229°
2026-04-28 18:22 55.78757 38.40857 2422 ft 157 kts 230°
2026-04-28 18:22 55.77961 38.39571 2444 ft 153 kts 237°
2026-04-28 18:23 55.77366 38.38066 2443 ft 147 kts 249°
2026-04-28 18:23 55.76955 38.36432 2445 ft 145 kts 256°
2026-04-28 18:23 55.76693 38.34732 2440 ft 143 kts 265°
2026-04-28 18:23 55.76622 38.33003 2447 ft 140 kts 274°
2026-04-28 18:24 55.76803 38.31323 2432 ft 139 kts 294°
2026-04-28 18:24 55.77092 38.30312 2450 ft 139 kts 294°
2026-04-28 18:24 55.77624 38.28241 2446 ft 138 kts 294°
2026-04-28 18:24 55.78121 38.26809 2461 ft 137 kts 305°
2026-04-28 18:25 55.78682 38.25568 2386 ft 124 kts 307°
2026-04-28 18:25 55.79229 38.24449 2418 ft 118 kts 307°
2026-04-28 18:25 55.79766 38.23356 2439 ft 118 kts 307°
2026-04-28 18:26 55.80835 38.21152 2442 ft 118 kts 307°
2026-04-28 18:26 55.81376 38.20040 2297 ft 120 kts 307°
2026-04-28 18:26 55.81913 38.18943 2129 ft 116 kts 306°
2026-04-28 18:26 55.82438 38.17858 1976 ft 117 kts 307°
2026-04-28 18:27 55.82966 38.16770 1821 ft 117 kts 306°
2026-04-28 18:27 55.83496 38.15677 1658 ft 118 kts 307°
2026-04-28 18:27 55.84036 38.14564 1497 ft 119 kts 307°
2026-04-28 18:27 55.84578 38.13445 1333 ft 121 kts 307°
2026-04-28 18:28 55.85127 38.12314 1166 ft 122 kts 308°
2026-04-28 18:28 55.85683 38.11166 997 ft 124 kts 308°
2026-04-28 18:28 55.86247 38.10003 808 ft 127 kts 309°
2026-04-28 18:28 55.86834 38.08824 645 ft 129 kts 309°
2026-04-28 18:29 55.87405 38.07638 497 ft 123 kts 308°
2026-04-28 18:29 55.87909 38.06554 477 ft 90 kts 310°
2026-04-28 18:29 55.88248 38.05851 477 ft 64 kts 309°
2026-04-28 18:29 55.88508 38.05297 477 ft 53 kts 309°
2026-04-28 18:30 55.88731 38.04835 477 ft 47 kts 311°
2026-04-28 18:30 55.88861 38.04557 477 ft 40 kts 309°
2026-04-28 18:30 55.88917 38.04248 477 ft 11 kts 189°
2026-04-28 18:30 55.88846 38.04227 477 ft 10 kts 189°
2026-04-28 18:31 55.88786 38.04208 477 ft 8 kts 190°
2026-04-28 18:31 55.88737 38.04191 477 ft 6 kts 191°
2026-04-28 18:31 55.88700 38.04178 477 ft 5 kts 192°
2026-04-28 18:31 55.88673 38.04168 477 ft 3 kts 192°
2026-04-28 18:32 55.88646 38.04158 477 ft 5 kts 193°
2026-04-28 18:32 55.88601 38.04139 477 ft 8 kts 193°
2026-04-28 18:32 55.88535 38.04113 477 ft 11 kts 191°
2026-04-28 18:32 55.88450 38.04085 477 ft 12 kts 191°
2026-04-28 18:33 55.88381 38.04061 477 ft 10 kts 191°
2026-04-28 18:33 55.88311 38.04035 477 ft 11 kts 190°
2026-04-28 18:33 55.88232 38.04012 477 ft 10 kts 188°
2026-04-28 18:33 55.88166 38.03995 477 ft 9 kts 189°
2026-04-28 18:34 55.88092 38.03973 477 ft 12 kts 189°
2026-04-28 18:34 55.88020 38.03950 477 ft 11 kts 191°
2026-04-28 18:34 55.87960 38.03929 477 ft 8 kts 191°
2026-04-28 18:34 55.87905 38.03909 477 ft 7 kts 192°
2026-04-28 18:35 55.87901 38.03907 477 ft 0 kts 192°